Temperature
6 5 5 6 6 6 6 5 5 6 7 7 6 7 8 8 8 8 9 9 9 10 10 10 10 10 10 10 10 10 11 10 10 10 10 10 10 11 11 11 11 11 11 11
5 5 6 7 7 6 6 5 5 6 7 7 6 7 7 8 8 9 9 9 9 10 10 10 10 10 10 10 10 10 10 10 10 10 10 10 10 10 11 11 11 11 11 11
6 6 7 7 6 6 6 5 5 5 6 6 6 6 6 7 8 9 9 9 9 9 9 10 10 10 10 10 10 10 10 10 9 9 9 9 9 10 10 10 10 11 11 11
6 6 7 6 6 6 5 6 6 6 5 4 5 5 6 6 7 8 8 9 9 9 9 9 9 9 10 10 10 10 9 9 9 9 9 9 9 9 10 10 10 10 10 11
5 6 6 6 7 7 6 6 6 5 5 4 5 4 5 6 6 7 7 8 9 9 9 9 9 9 9 9 9 9 9 9 9 9 9 9 9 9 10 10 10 10 10 10
5 6 7 7 7 7 6 5 5 4 3 4 5 5 5 5 6 7 7 8 8 9 9 9 9 9 9 9 9 9 9 9 9 9 9 9 9 9 9 10 10 10 10 10
4 5 6 7 6 6 5 3 3 3 2 3 5 5 5 6 6 7 7 7 8 8 8 8 8 8 9 8 8 8 8 8 8 9 9 9 9 9 9 10 9 9 10 10
3 4 6 6 6 5 5 4 3 3 3 4 4 5 5 6 7 8 8 7 7 8 8 8 8 8 8 8 8 8 8 8 8 8 8 9 9 9 9 9 9 10 10 10
3 3 5 6 6 6 5 4 4 3 2 3 3 4 5 6 6 7 7 7 7 7 7 7 7 8 8 8 8 8 8 8 8 8 8 9 9 9 9 9 9 10 10 10
3 3 3 4 6 6 5 4 3 3 2 3 3 4 4 5 6 6 6 6 6 7 7 7 7 7 7 8 8 8 7 8 8 8 8 8 8 9 9 9 9 9 10 10
3 2 2 3 4 5 5 4 3 2 2 3 3 5 6 5 6 5 5 6 6 6 6 6 6 7 7 7 7 7 7 7 7 8 8 8 8 9 9 9 9 9 9 10
3 1 1 2 4 5 5 4 3 2 2 2 3 4 7 6 5 5 6 6 6 6 6 6 6 6 6 7 7 7 7 7 7 7 7 8 8 8 8 9 9 9 9 9
3 1 1 3 4 3 3 3 3 2 2 2 2 4 6 5 5 6 6 6 6 6 6 6 6 6 6 6 6 6 7 7 7 7 7 7 8 8 8 8 8 9 9 9
4 1 1 3 3 2 2 2 3 2 2 2 3 4 5 5 5 5 5 5 5 5 5 5 5 5 5 5 6 6 6 6 6 7 7 7 7 7 8 8 8 8 8 9
3 1 1 2 2 2 2 3 3 2 2 2 3 4 5 5 4 5 5 5 5 5 5 5 4 4 5 5 5 5 5 6 6 6 6 7 7 7 7 7 8 8 8 9
2 1 1 1 2 2 2 3 3 3 3 3 3 4 5 4 4 4 4 4 4 5 4 4 4 4 4 4 5 5 5 5 6 6 6 6 6 7 7 7 7 7 8 8
1 1 1 1 1 1 2 3 3 3 3 3 3 4 4 4 4 4 4 4 4 4 4 4 4 4 4 4 4 5 5 5 5 5 5 6 6 6 6 6 6 7 7 8
1 0 0 0 0 1 3 4 4 3 4 3 3 3 3 3 4 4 5 4 4 4 4 3 3 3 4 4 4 4 4 5 5 5 5 5 5 5 6 6 6 6 7 7
1 1 1 0 -0 1 2 3 3 3 3 3 3 3 3 4 3 4 5 4 4 3 3 3 3 3 3 4 4 4 4 4 4 5 5 5 5 5 5 5 5 6 6 7
1 1 1 0 0 1 3 4 4 3 2 3 3 2 3 2 1 2 4 3 3 3 3 3 3 3 3 3 3 3 4 4 4 4 4 4 4 5 5 5 5 5 6 6
-0 -0 0 0 0 1 2 3 4 2 2 4 4 3 3 2 2 3 3 3 3 2 2 2 2 2 3 3 3 3 3 3 3 3 4 4 4 4 5 5 5 5 6 6
0 -1 -1 -0 0 1 3 3 2 3 4 4 4 4 3 3 3 3 3 2 2 2 2 2 2 2 2 2 2 2 3 3 3 3 3 4 4 4 4 5 5 5 5 5
1 1 0 1 2 3 4 4 5 5 4 4 4 4 3 3 3 2 2 2 2 2 1 1 1 1 2 2 2 2 2 2 2 3 3 3 4 4 4 4 5 5 5 5
0 1 0 -0 1 2 3 4 4 4 4 4 3 3 3 2 2 2 1 1 1 1 1 1 1 1 1 2 2 2 2 2 2 2 2 3 3 4 4 4 4 5 5 5
1 0 -0 0 1 1 3 4 4 4 3 3 3 3 2 2 2 1 1 1 1 1 1 0 0 0 1 1 1 2 2 2 2 2 2 2 3 3 3 4 4 4 4 4
1 1 1 1 2 1 2 4 4 3 3 3 2 2 2 1 1 1 1 0 0 0 0 0 0 0 1 1 1 1 2 2 2 2 2 2 2 3 3 3 4 4 4 4
Wind_Speed
1 2 2 4 4 6 7 8 12 12 9 8 12 17 19 15 9 8 8 7 7 8 7 7 7 7 6 6 5 7 7 7 6 6 6 7 7 7 7 8 12 14 14 14
4 2 6 5 5 6 7 9 9 11 6 9 11 15 14 10 7 6 7 6 6 6 5 5 5 5 6 6 5 6 8 8 8 7 7 7 7 7 7 8 10 13 14 14
3 5 4 4 7 7 7 6 7 10 12 5 5 8 7 7 6 6 6 6 6 6 6 5 5 5 5 6 6 6 7 8 9 8 6 5 5 5 6 8 9 11 14 14
4 4 3 5 6 5 7 6 8 10 7 5 3 6 7 7 8 8 7 6 7 6 5 5 5 5 6 6 5 5 7 8 8 8 8 9 9 8 8 8 8 9 12 13
5 4 4 5 5 4 6 9 10 9 4 4 2 2 7 6 6 7 7 7 7 6 5 5 5 5 6 4 4 5 6 8 8 8 10 10 10 8 6 7 8 9 9 12
5 5 3 3 4 3 5 7 6 3 3 2 3 1 6 4 5 6 8 8 8 7 6 6 5 5 4 3 3 4 6 8 8 8 9 11 12 10 9 9 10 9 8 10
8 6 4 2 5 5 6 6 6 7 5 4 4 2 6 7 5 4 7 8 9 8 6 5 5 5 4 4 4 4 6 8 8 9 10 11 13 13 13 11 11 10 9 9
5 7 4 3 1 3 3 3 2 2 4 6 5 4 6 6 5 5 6 7 8 8 7 6 6 5 5 5 5 5 6 6 7 9 10 10 10 11 10 11 11 11 10 10
1 7 5 4 3 2 2 1 3 3 4 4 5 6 7 5 6 7 7 9 10 10 8 7 7 6 6 6 6 6 6 5 6 7 7 8 9 10 10 11 11 10 10 9
4 6 6 6 4 2 2 2 3 1 3 5 6 5 5 6 6 7 8 10 11 10 9 8 8 8 7 6 6 5 5 5 6 6 5 5 7 9 9 9 11 10 11 11
2 3 7 5 2 3 1 0 1 1 2 2 6 7 5 5 5 7 9 9 10 11 11 11 10 9 8 7 6 5 6 5 5 4 4 4 5 5 7 8 9 10 10 12
2 2 5 8 7 3 3 3 3 1 4 4 5 9 6 5 5 7 9 11 12 11 11 10 10 8 8 8 7 6 6 4 4 3 3 3 3 3 5 6 6 8 10 12
3 2 5 7 4 2 1 2 2 2 3 5 6 10 5 7 10 11 11 12 13 12 12 11 9 9 9 8 7 5 5 4 3 3 3 3 3 4 4 5 5 6 7 9
3 4 6 8 8 4 7 9 7 5 6 8 12 17 19 16 14 14 13 12 12 11 11 10 10 9 9 9 8 6 6 4 3 3 3 3 3 4 4 4 4 5 6 8
3 5 8 13 14 12 15 18 14 13 12 12 16 18 21 17 13 13 12 12 11 11 10 11 10 10 9 9 8 7 7 5 3 3 3 3 3 2 2 2 3 4 5 6
4 4 4 9 10 12 17 20 18 16 13 15 18 21 17 12 10 10 11 10 10 10 10 11 11 11 11 10 9 8 7 6 4 3 3 3 2 2 2 2 2 3 4 4
5 4 3 7 7 8 11 11 11 8 8 9 12 13 9 10 10 10 10 9 8 10 10 11 11 11 10 10 8 7 6 6 4 4 3 2 2 2 3 3 3 3 3 3
7 5 3 5 5 8 9 4 6 8 11 11 10 8 8 10 11 10 7 5 8 10 10 10 10 10 10 9 9 7 6 5 4 4 4 3 2 3 3 2 3 3 3 4
10 8 4 3 5 10 10 7 5 6 9 7 7 8 8 8 7 7 6 5 7 9 9 9 9 9 9 9 9 7 6 5 4 5 4 3 3 4 4 3 3 3 3 3
7 7 6 5 5 8 8 4 1 1 7 5 4 6 7 5 7 8 8 8 8 8 8 8 9 8 8 9 8 6 6 5 5 5 5 4 3 4 4 4 3 3 3 3
5 5 10 10 9 10 9 4 2 2 8 5 4 6 6 6 8 8 9 9 8 8 9 8 8 8 8 8 7 7 6 6 6 5 4 4 4 4 4 3 3 3 2 1
10 8 8 7 8 11 6 5 6 9 6 5 6 6 7 8 9 9 9 9 8 8 9 8 8 9 9 7 7 7 6 6 6 4 4 4 4 4 3 3 2 2 2 2
10 11 8 11 12 7 6 8 7 5 6 7 6 8 8 9 9 9 9 9 8 8 8 8 8 10 9 8 7 7 7 6 5 4 5 5 5 4 3 2 2 2 2 2
7 6 6 8 12 10 9 8 7 7 8 8 8 8 7 9 9 9 8 9 8 8 9 8 8 9 10 9 7 6 6 5 5 5 4 4 4 4 3 2 2 2 2 2
9 7 7 10 10 8 9 10 11 9 8 8 8 8 8 9 9 9 8 9 8 8 8 7 8 9 10 9 7 6 5 4 4 4 4 4 4 3 3 4 3 3 3 4
8 10 9 12 10 8 9 8 8 8 9 9 9 9 8 7 9 9 8 8 8 8 8 8 8 9 9 8 8 6 5 4 4 4 4 3 3 3 3 3 4 3 4 4
Wind_Direction
74 67 282 263 240 250 267 266 280 281 287 293 280 287 295 303 295 286 284 273 257 250 247 242 236 237 240 235 227 218 208 200 196 202 200 202 206 203 201 201 196 191 189 190
24 281 255 265 282 285 285 286 283 292 299 302 285 287 291 298 285 279 290 286 268 269 274 265 249 242 240 230 223 225 215 202 200 207 208 207 209 206 203 202 199 194 191 192
266 259 280 310 310 308 294 273 282 295 312 300 310 300 301 314 313 319 319 299 283 269 260 256 250 245 235 231 230 235 229 212 208 207 209 211 210 201 204 201 198 199 194 195
295 277 305 309 300 303 296 274 284 295 317 304 353 306 301 314 331 337 328 322 315 291 275 262 257 251 237 237 239 243 240 221 215 208 208 210 212 210 211 204 203 200 198 197
293 291 308 299 285 289 272 293 293 287 275 292 293 245 295 323 321 319 322 326 322 304 282 277 269 256 250 242 248 253 251 228 217 215 215 216 216 215 209 204 202 202 205 201
272 290 279 269 294 290 303 320 324 6 55 316 274 248 300 306 290 310 327 337 331 320 301 290 280 274 271 258 260 269 259 238 219 218 219 218 213 208 206 208 204 204 208 204
327 319 318 346 340 344 21 23 5 360 3 274 302 289 266 282 286 300 318 329 329 325 310 307 304 298 290 278 268 278 268 246 228 225 223 222 212 206 208 209 208 207 211 208
339 310 313 345 315 301 326 93 100 300 286 297 312 269 268 292 305 315 326 329 329 330 325 316 305 297 289 279 271 276 269 265 242 232 231 223 215 212 212 211 210 212 213 208
276 282 300 300 273 237 321 249 194 199 285 285 281 287 302 312 327 334 337 340 337 329 323 317 310 300 294 288 281 274 263 264 258 248 239 228 221 219 217 212 212 215 211 208
184 274 292 306 319 299 193 174 67 67 319 296 292 276 272 299 315 330 339 338 333 333 331 326 323 319 309 302 295 295 279 270 264 243 236 239 236 227 218 216 217 213 210 204
146 238 302 326 274 257 23 54 148 208 211 251 293 280 244 256 289 313 320 324 322 327 329 325 323 322 321 321 318 303 292 283 278 257 243 241 242 236 227 221 220 216 211 203
181 174 276 265 255 246 205 201 158 195 270 236 263 277 271 274 298 311 314 316 317 321 324 320 318 325 331 325 317 308 307 300 286 283 272 255 255 240 229 224 226 220 214 207
153 135 317 328 336 0 301 246 212 233 250 243 250 269 295 321 319 318 316 316 319 321 324 325 326 328 326 322 318 311 311 307 302 302 290 263 255 246 232 228 228 230 220 211
162 185 207 240 257 273 281 276 267 243 251 259 251 269 290 300 305 310 312 313 315 318 325 331 333 331 326 324 322 322 314 302 305 307 305 292 264 251 237 228 228 233 227 217
168 236 241 255 267 272 271 273 267 248 240 248 264 273 282 290 297 302 306 312 319 325 330 332 333 329 326 328 328 327 322 313 303 300 301 284 281 275 267 243 234 237 237 226
187 243 270 274 267 269 272 270 262 255 248 247 262 274 276 289 299 304 308 312 320 324 325 327 329 328 325 324 324 323 323 316 309 300 298 293 298 295 279 271 254 250 243 230
197 202 270 278 300 306 274 255 239 230 225 224 249 263 293 307 308 306 304 303 310 317 321 323 323 320 318 316 315 314 313 313 314 311 303 298 300 291 273 276 256 252 254 245
192 186 230 284 327 262 249 245 231 241 254 243 250 267 284 288 292 291 283 291 309 316 320 320 320 317 315 314 313 310 316 318 315 317 311 302 299 293 280 271 269 255 252 236
192 186 209 236 265 275 285 273 231 234 273 249 241 266 284 297 310 301 287 299 298 304 310 311 312 312 314 315 316 314 320 319 319 316 312 299 291 290 283 268 270 265 255 250
180 183 203 216 241 255 255 255 261 352 282 260 229 265 286 315 314 297 303 312 310 313 313 315 317 319 320 319 321 316 312 312 309 304 299 297 289 286 280 270 261 276 261 249
157 193 216 226 241 262 257 246 129 219 258 263 247 259 266 253 253 275 296 302 303 306 308 315 319 319 316 319 324 315 310 306 301 304 305 305 302 293 284 279 269 276 270 245
185 191 202 201 225 251 226 168 196 230 252 254 259 260 261 264 271 281 288 293 301 306 310 316 317 313 312 314 320 313 301 300 304 308 307 307 307 303 293 279 279 278 252 209
204 199 195 202 221 238 201 211 231 233 249 255 259 264 263 268 275 283 286 292 296 299 304 309 309 309 310 311 310 303 298 305 311 311 304 303 305 302 294 270 264 279 235 202
236 203 208 241 253 252 256 259 260 250 249 255 255 258 258 264 274 280 287 292 297 299 301 305 309 307 306 306 304 294 294 300 297 293 292 296 303 306 306 287 258 256 243 215
217 197 218 246 261 275 260 248 252 255 256 260 263 259 256 260 270 272 279 285 290 294 297 299 296 296 297 302 304 302 293 299 299 297 299 303 299 295 301 303 279 260 250 236
204 205 217 245 236 230 249 243 239 247 255 257 261 267 265 257 265 273 279 283 287 292 296 298 299 297 298 302 302 305 300 296 296 300 299 293 292 293 294 306 316 302 262 260
Height
1493 1496 1495 1492 1491 1490 1488 1486 1484 1474 1468 1467 1461 1453 1444 1439 1437 1434 1431 1429 1428 1428 1428 1428 1428 1428 1428 1427 1427 1427 1428 1429 1431 1433 1434 1435 1437 1439 1442 1445 1448 1451 1454 1458
1496 1495 1490 1487 1486 1485 1484 1483 1479 1469 1464 1463 1457 1450 1442 1438 1435 1432 1430 1427 1426 1425 1424 1424 1423 1423 1422 1422 1422 1423 1423 1424 1426 1427 1429 1430 1432 1434 1436 1440 1443 1446 1449 1452
1495 1492 1487 1486 1485 1484 1481 1480 1476 1472 1464 1460 1459 1450 1442 1436 1432 1430 1428 1426 1424 1422 1421 1420 1419 1419 1418 1418 1419 1419 1418 1419 1420 1422 1424 1425 1427 1429 1431 1433 1437 1440 1443 1447
1492 1488 1487 1486 1484 1483 1481 1473 1472 1469 1471 1469 1464 1463 1445 1439 1434 1430 1427 1424 1421 1420 1418 1417 1416 1415 1415 1414 1414 1414 1415 1414 1415 1416 1418 1418 1420 1421 1423 1427 1431 1434 1437 1441
1493 1488 1487 1485 1482 1480 1478 1472 1470 1467 1469 1471 1465 1467 1451 1441 1436 1431 1427 1423 1420 1418 1416 1415 1413 1412 1412 1411 1410 1410 1410 1410 1410 1411 1412 1413 1415 1416 1419 1423 1425 1428 1432 1435
1491 1487 1485 1483 1480 1479 1476 1473 1469 1470 1474 1476 1465 1465 1455 1445 1437 1431 1426 1423 1420 1417 1415 1413 1411 1409 1407 1407 1406 1406 1405 1405 1404 1406 1407 1408 1409 1411 1414 1416 1420 1423 1426 1429
1495 1488 1484 1482 1482 1479 1480 1485 1486 1486 1488 1479 1463 1460 1453 1439 1434 1431 1427 1423 1420 1417 1414 1411 1409 1406 1405 1404 1403 1401 1400 1399 1400 1400 1401 1402 1403 1405 1407 1410 1414 1417 1420 1423
1506 1497 1486 1484 1484 1484 1483 1486 1495 1497 1492 1476 1465 1460 1447 1437 1432 1429 1427 1424 1420 1416 1413 1410 1407 1404 1402 1400 1399 1397 1396 1395 1395 1395 1395 1397 1398 1400 1402 1405 1408 1411 1414 1416
1507 1499 1487 1484 1482 1482 1483 1486 1486 1492 1490 1486 1470 1458 1444 1435 1432 1429 1426 1422 1419 1415 1412 1409 1405 1402 1400 1397 1395 1393 1391 1390 1390 1390 1390 1390 1393 1395 1397 1400 1403 1406 1408 1411
1503 1503 1491 1486 1482 1480 1481 1483 1490 1493 1495 1486 1470 1462 1451 1438 1433 1429 1426 1422 1418 1414 1410 1406 1403 1400 1397 1394 1391 1389 1388 1386 1386 1385 1385 1385 1386 1389 1391 1394 1397 1399 1402 1406
1500 1504 1496 1490 1485 1483 1483 1485 1486 1491 1491 1489 1478 1457 1439 1436 1432 1429 1426 1422 1418 1413 1408 1404 1399 1396 1392 1390 1388 1386 1384 1383 1382 1381 1381 1381 1382 1384 1386 1388 1391 1393 1396 1400
1499 1504 1502 1491 1481 1480 1481 1482 1486 1493 1492 1486 1479 1455 1434 1432 1430 1428 1425 1421 1417 1412 1408 1403 1399 1394 1391 1388 1386 1383 1381 1379 1379 1378 1378 1378 1379 1380 1382 1384 1386 1388 1391 1394
1498 1503 1503 1488 1486 1484 1483 1481 1482 1485 1486 1483 1476 1453 1432 1431 1429 1427 1424 1420 1415 1411 1406 1401 1397 1393 1390 1387 1384 1381 1379 1377 1376 1375 1375 1375 1376 1377 1378 1379 1381 1383 1386 1389
1493 1499 1500 1493 1484 1485 1485 1481 1480 1482 1482 1475 1463 1446 1433 1431 1428 1425 1422 1418 1414 1409 1405 1400 1395 1391 1387 1384 1381 1379 1377 1375 1374 1373 1372 1372 1373 1374 1375 1376 1377 1379 1380 1383
1492 1494 1493 1486 1481 1481 1478 1473 1471 1472 1470 1468 1452 1444 1433 1429 1427 1423 1420 1415 1411 1407 1403 1398 1394 1390 1386 1382 1379 1377 1374 1373 1372 1371 1371 1370 1371 1371 1372 1372 1373 1375 1376 1378
1489 1490 1489 1483 1477 1476 1470 1461 1459 1459 1457 1454 1447 1439 1429 1427 1424 1421 1417 1413 1409 1405 1402 1397 1393 1388 1384 1381 1378 1375 1373 1371 1369 1368 1368 1368 1368 1369 1369 1369 1370 1371 1373 1375
1487 1489 1489 1482 1477 1474 1464 1450 1449 1448 1445 1444 1442 1433 1427 1425 1421 1417 1414 1410 1407 1404 1400 1395 1391 1386 1382 1379 1376 1374 1372 1370 1368 1367 1366 1366 1366 1366 1367 1367 1367 1367 1368 1370
1482 1485 1486 1483 1481 1475 1450 1441 1441 1441 1437 1435 1432 1429 1426 1423 1418 1414 1411 1408 1405 1401 1397 1393 1389 1384 1380 1377 1374 1372 1370 1368 1366 1365 1365 1364 1364 1364 1364 1364 1364 1365 1366 1368
1473 1478 1482 1483 1482 1466 1448 1439 1438 1438 1434 1428 1428 1426 1423 1420 1415 1410 1408 1406 1403 1400 1395 1391 1387 1383 1379 1375 1372 1370 1368 1366 1365 1364 1363 1363 1362 1362 1362 1362 1362 1363 1363 1364
1469 1472 1477 1478 1476 1463 1441 1435 1433 1436 1435 1425 1424 1422 1420 1418 1417 1410 1405 1403 1400 1396 1393 1388 1384 1380 1376 1373 1370 1368 1365 1364 1363 1362 1361 1360 1360 1359 1359 1359 1360 1360 1361 1361
1471 1472 1471 1470 1467 1452 1435 1432 1433 1440 1433 1422 1420 1419 1417 1416 1413 1408 1403 1400 1397 1393 1389 1385 1381 1377 1374 1371 1368 1366 1363 1362 1360 1359 1359 1358 1357 1357 1357 1357 1357 1357 1357 1358
1460 1464 1465 1464 1462 1447 1427 1429 1431 1427 1420 1419 1417 1415 1413 1410 1407 1403 1400 1396 1393 1389 1386 1382 1378 1374 1371 1369 1366 1363 1361 1359 1358 1357 1356 1355 1355 1355 1354 1354 1354 1354 1354 1355
1447 1444 1444 1443 1434 1422 1420 1420 1418 1418 1417 1415 1413 1411 1409 1406 1403 1399 1396 1392 1388 1385 1382 1379 1375 1371 1368 1365 1363 1360 1358 1357 1355 1354 1353 1352 1352 1352 1351 1351 1351 1351 1351 1352
1436 1432 1435 1433 1422 1418 1416 1415 1414 1414 1412 1410 1409 1407 1404 1401 1398 1395 1392 1388 1384 1381 1377 1374 1371 1367 1364 1362 1359 1357 1355 1354 1352 1350 1350 1349 1348 1348 1348 1348 1348 1348 1348 1349
1425 1426 1426 1422 1415 1413 1410 1409 1409 1408 1406 1405 1403 1401 1399 1396 1393 1390 1387 1384 1380 1377 1373 1370 1367 1364 1361 1358 1355 1353 1352 1350 1348 1347 1346 1345 1345 1344 1344 1344 1345 1345 1346 1347
1415 1416 1418 1411 1407 1407 1403 1403 1403 1402 1400 1399 1398 1395 1393 1391 1388 1385 1382 1379 1376 1373 1370 1366 1363 1360 1357 1354 1352 1350 1349 1347 1345 1344 1343 1342 1341 1341 1341 1340 1341 1342 1344 1345